Flag for Slovakia Weather past 2 weeks in Prievidza, Slovakia

Now
32 °F

Fog.


Feels Like: 32 °F
Forecast: 26 / 33 °F
Wind: No wind

Location: Prievidza

Current Time: Jan 28, 2015 at 10:58:22 AM

Latest Report: Jan 28, 2015 at 10:00 AM


Visibility: 2 mi

Pressure: 30.08 "Hg

Humidity: 89%

Dew point: 29 °F

Location of PrievidzaLocation

Historic Weather in Prievidza — Graph

°F

Prievidza temperature yesterday

Maximum temperature yesterday: 32 °F (at 12:00 PM)
Minimum temperature yesterday: 25 °F (at 2:00 AM)
Average temperature yesterday: 30 °F

Past Weeks' High & Low Weather Summary

 TemperatureHumidityPressure
High49 °F (Jan 23, 1:00 PM)97% (Jan 19, 4:00 AM)30.28 "Hg (Jan 19, 4:00 AM)
Low25 °F (Jan 14, 8:00 AM)48% (Jan 13, 3:00 PM)29.90 "Hg (Jan 24, 4:00 PM)
Average37 °F80%30.04 "Hg
* Reported Jan 13 10:00 AM — Jan 28 10:00 AM, Prievidza, Weather by CustomWeather, © 2014

Note: Actual official high and low records may vary slightly from our data, if they occured in-between our weather recording intervals... More about our weather records

Advertising

Prievidza weather history for previous 24 hours

 ConditionsComfort  
Time TempWeatherWind HumidityBarometerVisibility
10:00 AM
Jan 28
32 °FFog.No wind89%30.08 "Hg2 mi
9:00 AM31 °FFog.N/A92%30.09 "Hg2 mi
8:00 AM29 °FFog.1 mph95%30.09 "Hg2 mi
7:00 AM29 °FFog.N/A95%30.09 "Hg2 mi
6:00 AM28 °FFog.N/A94%30.09 "Hg2 mi
5:00 AM28 °FFog.No wind93%30.09 "Hg3 mi
4:00 AM28 °FFog.N/A92%30.08 "Hg4 mi
3:00 AM29 °FFog.N/A95%30.08 "Hg2 mi
2:00 AM29 °FFog.N/A94%30.09 "Hg2 mi
1:00 AM29 °FFog.No wind95%30.09 "Hg1 mi
12:00 AM29 °FFog.N/A93%30.08 "Hg2 mi
11:00 PM
Jan 27
30 °FFog.No wind93%30.08 "Hg2 mi
10:00 PM30 °FFog.No wind93%30.07 "Hg2 mi
9:00 PM30 °FChilly.No wind93%30.07 "HgN/A
8:00 PM30 °FFog.1 mph92%30.06 "Hg2 mi
7:00 PM30 °FFog.No wind92%30.06 "Hg3 mi
6:00 PM31 °FFog.N/A91%30.04 "Hg5 mi
5:00 PM31 °FOvercast.1 mph89%30.03 "Hg6 mi
4:00 PM31 °FOvercast.N/A87%30.02 "Hg6 mi
3:00 PM32 °FOvercast.1 mph87%30.01 "Hg5 mi
2:00 PM32 °FLight snow. Overcast.No wind85%30.01 "Hg4 mi
1:00 PM31 °FLight snow. Overcast.N/A87%30.02 "Hg2 mi
12:00 PM32 °FLight snow. Overcast.N/A84%30.02 "Hg2 mi
11:00 AM31 °FChilly.1 mph89%30.04 "HgN/A
10:00 AM30 °FChilly.No wind86%30.04 "HgN/A
Weather by CustomWeather, © 2014

See weather overviewHow to use our weather pages